Theta_e
313 312 313 312 312 311 310 312 314 314 315 318 320 318 316 316 317 318 319 320 323 325 323 321 319 317 314 312 311 310 309 309 309 309 310 309 310 312 315 316 317 318 318 319 320 321 323 324 325 325 326 326 326 327 327 327 327 327 326 326 326 325 324 324 325 326 325 324 323 323 323 322 322 320 319 318 315 312 312 313 314 314 314 314 313 313 313
313 313 312 312 311 311 310 311 311 313 315 317 318 317 317 317 318 319 320 322 322 321 320 316 313 313 311 309 309 308 307 307 307 307 307 307 307 309 311 312 315 316 315 316 319 321 321 322 323 324 326 326 326 326 326 326 326 326 326 325 325 324 324 324 325 325 324 323 322 322 322 321 321 320 319 319 317 315 315 315 314 314 315 315 314 313 314
315 314 313 313 312 311 311 311 310 311 314 316 316 316 317 318 320 320 320 323 321 316 313 311 310 310 309 307 307 306 306 306 306 306 306 306 306 306 307 308 310 313 313 314 318 320 319 319 322 324 325 325 326 326 326 326 326 325 325 325 325 325 325 325 325 323 322 322 322 322 322 321 320 318 318 318 317 316 317 317 314 313 315 316 315 314 313
316 314 314 314 314 313 312 311 310 311 313 313 313 313 314 316 320 320 320 322 320 313 310 309 308 307 306 306 305 305 305 305 305 305 305 305 305 305 306 308 308 309 309 310 314 317 317 318 321 322 323 324 325 325 325 325 325 325 324 324 325 324 324 324 323 321 321 323 322 321 320 319 318 317 318 319 318 318 317 316 315 315 315 316 316 315 313
316 313 314 316 316 317 315 312 309 310 311 311 312 313 312 312 315 318 319 319 315 312 309 308 306 305 305 304 304 304 304 304 304 304 304 304 304 304 306 308 309 308 308 309 311 313 317 319 319 319 321 322 323 323 323 324 324 324 323 323 323 323 322 322 321 319 321 322 321 320 320 319 319 319 319 319 319 318 318 317 317 317 317 316 317 316 315
315 314 314 316 317 318 315 309 307 308 310 310 312 313 311 311 313 314 314 311 309 308 308 306 304 303 303 303 303 303 303 303 303 303 303 303 304 304 304 306 308 307 306 308 312 313 315 317 317 317 319 320 320 321 321 321 322 322 322 322 322 322 321 322 320 319 320 321 321 321 320 320 320 320 320 319 319 318 318 318 318 318 318 318 318 318 318
315 314 314 317 318 315 311 307 306 307 308 308 310 311 309 309 310 310 309 306 304 304 304 303 302 301 301 301 302 302 302 302 302 303 303 303 303 303 303 304 306 307 305 306 311 313 314 314 315 316 317 318 318 319 319 320 320 320 321 321 321 321 320 319 318 318 319 319 320 320 320 319 319 319 319 318 318 318 318 318 317 317 318 318 318 318 318
314 314 315 316 315 311 309 308 306 306 307 307 309 311 310 308 308 308 306 305 303 302 302 301 301 301 301 301 301 301 302 302 303 303 303 303 303 303 303 303 303 305 305 305 307 310 310 309 310 310 311 312 313 313 314 316 317 317 318 319 318 319 318 316 316 316 316 317 317 318 318 319 318 318 318 318 318 318 318 318 318 317 318 318 318 318 318
312 315 314 313 313 311 309 308 306 305 306 305 307 310 310 307 307 306 304 303 303 302 302 302 301 302 302 301 300 300 301 302 303 303 303 304 304 304 305 304 303 304 303 303 305 306 305 305 305 304 305 306 306 306 307 308 309 310 311 312 311 312 312 312 313 313 313 314 315 316 317 318 318 318 318 318 318 318 318 318 318 318 318 318 318 318 318
310 313 314 312 314 313 309 307 305 304 305 304 304 308 309 306 305 305 304 302 302 302 302 302 303 304 304 302 300 299 300 301 302 302 302 303 305 306 306 306 306 305 305 305 305 305 305 305 305 304 305 305 305 305 305 305 304 305 305 305 305 305 305 306 307 308 308 309 311 312 314 315 316 316 316 316 316 316 316 317 318 318 318 318 318 318 317
309 311 312 311 313 311 307 305 304 304 304 303 304 309 311 306 304 304 304 302 303 303 303 303 304 305 305 302 299 299 300 301 302 302 301 301 303 304 305 306 306 306 306 306 306 307 307 307 307 307 307 307 307 307 307 307 306 306 306 305 305 305 304 304 304 304 305 305 306 307 308 309 309 309 310 310 311 312 312 313 313 314 314 314 314 314 315
308 309 310 310 310 308 305 304 304 303 303 303 308 314 313 305 303 304 303 302 304 304 304 304 305 305 304 301 299 299 299 301 302 302 301 301 301 301 301 302 302 303 303 303 303 304 305 306 306 308 308 309 308 308 308 309 308 307 306 306 307 307 306 306 306 306 306 306 306 306 307 307 307 307 307 307 306 306 306 306 307 307 307 307 307 308 308
307 309 310 309 308 306 304 303 303 303 303 307 312 313 308 304 304 305 303 303 304 304 304 304 303 302 302 300 299 299 300 300 301 301 301 301 301 300 300 300 300 300 300 300 300 301 301 302 303 305 306 308 307 307 307 309 308 307 305 304 305 306 306 307 307 307 307 307 307 306 306 307 306 307 307 307 306 305 304 304 304 303 303 303 303 303 303
305 307 308 309 307 305 303 303 303 303 306 310 310 306 304 304 304 304 303 303 303 303 303 302 300 300 300 300 299 299 300 300 300 300 300 300 300 300 300 300 300 300 300 300 300 300 300 300 300 301 302 303 303 303 304 305 304 303 302 302 302 302 303 303 304 304 303 303 304 304 303 303 303 304 304 304 304 303 303 302 301 301 301 301 300 301 301
305 306 308 309 308 305 302 303 304 304 306 307 304 302 304 305 303 302 302 302 302 302 301 300 300 300 300 300 300 300 300 300 300 300 300 300 300 300 300 300 300 300 300 300 300 300 299 299 299 299 299 300 300 301 301 301 300 299 299 299 299 299 299 299 300 300 300 300 300 300 300 300 300 300 301 301 301 301 301 300 300 300 299 299 299 299 299
306 308 308 307 306 303 301 302 303 302 302 302 301 302 304 304 302 302 301 301 301 302 301 300 301 301 300 300 300 300 300 300 300 300 300 299 299 299 300 300 300 300 300 300 300 300 299 299 299 299 299 298 299 299 299 298 298 298 297 297 297 297 297 297 298 298 298 298 298 298 298 298 298 299 299 299 299 299 299 299 299 299 299 299 299 299 299
304 305 305 303 302 302 301 301 301 301 300 301 302 303 303 303 302 302 301 300 300 301 300 300 300 300 300 299 299 299 300 300 300 300 300 300 300 300 300 300 300 299 299 300 299 300 299 299 299 299 298 298 297 297 297 297 297 297 297 297 297 297 297 297 297 297 297 297 297 297 298 298 298 298 298 298 298 298 298 298 298 298 298 298 298 298 299
302 303 302 302 302 302 302 301 301 300 301 301 302 303 302 302 302 302 301 300 300 299 299 299 299 299 299 299 299 299 299 299 300 300 300 300 300 300 300 300 300 299 299 299 299 299 299 299 299 298 298 297 297 296 296 296 296 296 296 296 296 296 296 296 297 297 297 297 297 297 297 297 297 298 298 298 298 298 298 298 298 298 298 298 298 298 298
302 303 302 301 301 301 301 301 301 301 301 302 302 302 302 301 302 302 301 300 299 299 299 299 299 299 299 299 299 299 298 298 298 299 299 300 300 300 300 300 300 299 299 299 299 299 299 299 298 298 297 297 296 296 296 296 296 296 296 296 296 296 296 296 297 297 297 297 297 297 297 297 297 297 297 297 297 297 297 297 297 297 297 297 297 297 297
302 302 301 301 301 301 301 301 301 301 301 302 302 302 302 302 302 301 301 301 300 299 299 299 299 299 299 299 299 299 299 298 298 298 298 299 299 300 300 299 299 299 299 299 299 299 298 298 298 298 297 296 296 296 296 296 296 296 296 296 296 296 296 297 297 297 297 297 297 297 296 297 297 297 297 297 297 297 297 297 297 297 297 297 297 297 297
302 301 301 302 302 302 301 301 301 301 301 301 302 302 302 302 302 301 301 301 301 300 300 300 300 300 300 300 300 300 299 299 299 298 298 298 299 299 299 299 299 299 299 299 299 298 298 298 298 297 297 296 296 296 296 296 295 295 296 296 296 296 297 297 297 297 296 296 296 296 296 296 296 296 296 296 297 297 297 297 297 297 297 297 297 297 297
302 302 302 302 302 302 302 301 301 301 301 301 301 301 301 302 302 302 301 301 301 301 301 301 300 301 300 300 300 300 300 299 299 298 298 298 298 298 298 299 299 299 299 299 298 298 298 298 298 297 297 296 296 296 296 296 295 295 296 296 296 296 296 296 296 296 296 296 296 295 296 296 296 296 296 296 297 297 297 297 297 297 297 297 297 297 298
302 302 302 301 302 303 302 301 301 301 301 302 302 302 302 302 302 302 301 300 300 300 300 300 300 300 300 300 300 299 299 298 297 297 297 297 297 298 298 298 298 298 299 299 298 298 298 298 298 297 297 297 296 296 296 296 295 295 296 296 297 297 296 296 295 295 295 295 295 295 296 296 296 296 296 296 297 297 297 297 298 298 298 297 297 298 298
302 302 301 301 302 303 302 302 302 302 302 302 302 301 301 301 301 301 300 299 299 300 300 300 300 300 299 299 298 297 296 295 294 294 294 296 297 298 297 298 298 298 298 298 298 298 298 298 297 297 297 297 296 296 296 296 295 295 296 296 296 296 295 295 295 295 295 295 295 295 296 296 296 296 296 296 297 297 298 298 298 298 298 298 298 298 298
302 301 301 301 302 303 303 303 302 302 301 300 300 300 299 299 299 299 298 298 298 298 299 299 299 298 297 296 295 295 294 294 293 293 293 294 296 297 297 298 298 298 298 298 298 298 298 298 297 297 297 297 297 296 296 296 295 295 296 296 296 295 295 294 294 294 295 295 295 296 296 296 296 296 296 296 297 297 298 298 298 298 298 298 298 298 297
302 301 301 301 301 302 302 301 301 300 300 299 299 299 299 298 298 298 297 297 297 297 298 298 298 297 296 295 295 295 294 294 294 294 293 292 293 295 296 297 297 297 298 298 298 298 297 297 297 297 297 297 297 297 296 296 296 295 295 296 296 296 295 295 294 295 295 295 295 296 296 296 296 295 296 296 296 297 298 298 298 298 298 297 297 297 297
301 301 301 301 301 300 300 301 301 300 300 299 299 299 298 297 297 297 297 297 297 297 297 297 296 296 295 295 295 295 295 294 294 294 293 292 292 292 294 295 296 296 297 297 297 297 297 297 297 297 297 297 297 297 296 296 296 295 295 295 295 296 296 295 295 295 295 295 295 296 296 296 296 295 295 295 295 296 297 297 297 298 298 297 297 297 297
301 301 300 301 301 300 300 301 301 300 300 300 299 299 298 297 297 297 297 297 297 297 297 296 296 295 295 295 295 295 295 294 294 293 293 293 293 292 292 292 293 294 295 295 296 296 297 297 297 297 297 296 296 297 296 296 296 296 295 295 295 295 296 296 295 294 295 295 295 295 296 296 296 296 295 295 295 295 295 296 296 297 297 297 297 297 297
301 301 301 301 301 301 301 301 301 301 300 300 299 299 298 297 297 297 297 297 297 297 296 296 296 295 296 295 295 295 295 294 294 294 293 293 293 293 292 292 292 292 293 293 294 294 295 296 296 297 296 296 296 297 297 296 296 296 295 295 295 295 295 295 295 295 294 295 295 295 295 296 296 296 296 295 295 295 295 295 295 296 296 297 297 297 296
301 301 301 301 301 301 301 301 301 301 300 300 299 299 298 297 297 297 297 297 296 296 296 296 296 296 296 296 295 295 295 295 295 294 294 293 293 293 293 293 292 292 292 292 293 294 294 294 295 296 296 296 296 297 297 296 297 296 295 295 295 295 295 295 295 295 294 294 294 295 295 295 295 295 295 295 295 295 295 295 295 295 296 296 296 296 296
300 300 301 301 301 300 300 300 300 300 300 300 299 299 299 298 297 297 297 297 296 296 296 296 296 296 296 296 296 295 295 295 295 294 294 294 293 292 292 292 292 291 292 292 293 294 294 294 294 295 295 296 296 297 297 297 297 297 296 295 294 295 294 294 294 295 295 294 294 294 295 295 295 295 295 295 295 295 295 295 295 295 295 295 296 295 296
298 299 299 300 300 300 300 299 299 299 299 299 299 299 299 298 298 297 297 297 297 296 296 296 296 296 296 295 295 295 295 295 295 295 294 293 292 291 292 293 293 292 292 292 293 294 293 294 294 295 295 296 297 297 297 297 296 296 296 295 294 294 294 294 294 294 295 295 295 294 294 294 294 294 294 294 295 294 294 294 294 294 295 295 295 295 295
298 298 298 299 299 299 299 299 298 298 298 298 298 298 298 298 298 298 297 297 297 297 296 296 296 296 296 295 295 295 295 295 294 294 292 291 291 293 294 294 294 294 293 293 293 294 294 294 294 295 296 296 297 297 297 296 296 296 296 296 295 294 294 294 294 294 294 295 295 295 294 294 294 294 294 294 294 294 294 294 293 294 294 294 294 295 295
297 298 298 298 298 298 298 298 298 298 298 298 298 297 297 297 297 297 297 297 297 297 296 296 296 296 296 295 295 295 295 294 293 292 290 290 293 295 295 294 294 294 294 294 294 294 294 294 295 295 296 296 297 297 297 296 296 296 296 296 295 294 294 294 294 294 294 294 295 295 295 295 294 294 294 294 294 294 293 293 293 293 294 294 294 295 295
297 298 298 298 298 298 298 298 298 298 298 298 298 297 297 296 296 296 296 297 297 297 296 296 296 295 295 295 295 295 294 293 292 292 291 291 294 295 295 294 294 294 294 294 295 294 294 294 295 296 296 296 296 297 297 296 296 296 296 296 295 294 294 294 294 294 294 294 294 295 295 295 295 294 294 293 293 293 293 293 293 294 294 294 294 294 295
297 298 298 298 298 298 298 298 298 298 298 298 297 297 297 297 297 297 297 296 297 297 296 296 296 295 295 295 295 295 293 292 292 291 291 292 293 293 293 293 293 292 293 294 295 295 295 295 295 296 296 296 296 297 297 296 296 296 296 296 295 294 294 294 294 294 293 294 294 295 295 294 294 293 292 292 293 293 293 293 293 294 293 293 293 294 295
297 297 297 297 297 297 298 298 297 297 298 297 297 297 297 297 297 297 297 296 296 296 296 296 296 295 295 295 295 294 293 292 292 292 291 292 292 292 292 291 291 291 291 292 293 295 295 295 295 296 296 296 296 296 297 296 296 296 296 296 295 294 294 293 294 293 293 293 294 295 294 293 292 292 292 292 293 293 293 293 293 293 293 293 293 294 294
297 297 297 297 297 297 297 297 297 297 297 297 297 297 297 297 297 296 296 296 296 296 296 296 296 295 295 295 295 294 293 293 292 292 292 292 292 292 291 291 290 290 290 290 291 293 294 295 295 296 296 296 296 296 296 295 295 296 296 296 295 295 294 293 293 293 293 293 294 295 294 293 292 292 292 293 293 293 293 293 292 293 293 293 293 293 293
297 297 297 297 297 297 297 297 297 297 297 297 297 297 297 297 296 296 296 296 296 296 296 296 295 295 295 295 295 294 293 293 293 293 292 292 291 291 291 290 290 289 289 290 291 292 293 294 296 296 296 296 296 295 294 294 295 296 296 295 295 294 293 292 293 293 293 293 294 294 293 292 292 292 292 292 293 293 293 292 292 293 293 293 293 293 293
297 297 297 297 297 297 297 297 297 297 297 297 296 296 296 296 296 296 296 296 296 296 296 296 295 295 295 295 295 295 293 293 293 293 292 292 291 290 290 290 290 289 289 289 290 291 291 293 295 296 296 296 295 292 292 294 295 296 295 295 295 294 293 293 292 292 292 292 293 293 293 292 292 292 292 292 293 293 293 292 292 293 294 293 293 293 293
297 297 297 297 297 297 297 297 297 297 297 297 296 296 296 296 296 296 296 296 295 295 295 295 295 295 295 295 295 295 294 293 293 293 293 292 292 291 291 291 290 290 290 290 290 291 290 292 294 296 295 294 292 290 290 293 294 295 295 295 295 294 294 294 292 292 292 292 292 293 293 293 292 292 292 292 293 293 293 292 293 293 293 293 293 294 294
297 297 297 297 297 297 297 297 297 297 297 297 297 297 297 296 296 296 295 295 295 295 295 295 295 295 295 295 295 295 295 294 294 294 293 293 292 292 292 291 291 291 291 291 291 291 291 291 292 293 293 292 291 290 290 291 292 293 295 295 295 294 295 295 293 292 292 292 292 292 292 293 292 292 292 292 293 292 292 293 293 293 293 293 293 293 293
297 297 297 297 297 297 297 297 297 297 297 297 297 297 297 297 297 296 296 296 296 295 295 295 295 295 295 295 295 295 295 295 295 294 294 293 292 292 291 291 291 291 291 291 291 290 290 291 291 291 290 290 290 289 289 290 292 294 295 295 294 294 295 295 294 292 291 291 292 292 292 292 292 292 292 292 292 292 292 293 293 293 293 292 292 292 293
297 297 297 297 297 297 297 297 297 297 297 297 297 297 297 297 297 296 296 296 296 296 296 295 295 295 295 295 295 295 295 295 295 295 294 294 294 292 291 291 291 291 291 291 291 291 291 291 291 291 290 288 288 288 289 290 292 295 295 295 295 295 295 295 295 294 292 291 292 292 292 292 292 292 292 292 292 293 293 293 293 293 293 292 292 292 293
297 296 296 297 297 297 297 297 297 297 297 297 297 297 297 297 297 297 296 296 296 296 296 296 296 296 296 295 295 295 296 295 295 295 295 295 294 293 292 291 291 291 291 291 290 290 291 292 291 292 291 289 287 288 290 291 292 294 295 295 295 295 295 295 295 294 293 291 291 291 292 292 292 292 292 292 293 292 293 293 293 293 292 292 292 292 292
297 297 297 297 297 297 297 297 297 297 297 297 297 297 297 297 297 297 297 297 297 296 296 297 296 296 296 296 296 296 296 296 296 295 295 295 295 294 293 292 291 291 291 290 289 289 290 291 291 292 291 289 287 288 290 290 291 293 295 295 295 295 295 295 295 294 294 292 291 290 290 291 292 292 292 292 292 292 293 293 293 292 292 292 292 292 292
297 297 296 297 297 297 297 297 297 297 297 297 297 297 297 297 297 297 297 297 297 297 297 297 296 296 296 296 296 296 296 296 296 296 295 295 295 294 293 292 291 291 291 290 290 289 289 289 289 289 289 288 287 287 289 290 290 292 294 295 295 294 294 294 294 294 294 293 292 290 289 290 291 292 292 292 292 292 292 293 293 292 292 292 292 291 291
296 296 296 296 296 296 297 297 297 297 297 297 297 297 297 297 297 297 297 297 296 296 297 296 296 296 296 296 296 296 296 296 296 296 296 295 295 295 294 293 292 291 290 291 291 290 288 287 287 287 287 287 286 287 288 289 290 291 293 294 294 294 294 294 294 294 294 293 293 292 290 289 289 290 291 292 292 292 292 292 292 292 292 292 292 291 291
296 296 296 296 296 296 296 296 297 297 297 297 297 297 297 297 297 297 297 297 296 296 296 296 296 296 296 296 296 296 296 296 296 296 296 296 295 295 295 294 293 291 290 290 290 289 288 287 287 287 287 287 287 287 287 288 289 291 293 294 293 293 293 293 293 294 294 293 293 292 292 290 289 288 288 289 291 292 292 292 293 292 292 292 292 291 291
296 296 296 296 296 296 296 296 296 296 297 297 297 297 297 297 297 297 297 297 297 297 296 296 296 296 296 296 296 296 296 296 296 296 296 296 296 295 295 295 293 291 289 289 288 288 287 287 287 287 287 287 287 287 287 287 288 290 292 293 293 293 292 292 292 292 292 292 292 292 292 292 291 289 288 287 288 289 290 291 292 292 292 292 292 291 291
296 295 295 295 295 295 296 296 296 296 297 297 297 297 297 297 297 297 296 296 296 296 296 296 296 296 296 296 296 295 295 295 295 295 295 296 296 295 295 295 293 291 290 290 290 289 288 288 287 287 287 287 287 287 287 287 288 290 291 291 291 290 290 289 289 289 289 289 290 291 292 292 291 290 288 287 287 287 288 289 290 291 292 292 292 292 291
295 295 295 295 295 295 295 295 296 296 296 297 297 297 297 296 297 296 296 296 296 296 296 296 296 296 296 296 296 295 295 295 295 295 295 295 295 296 295 295 293 292 291 292 292 291 291 290 289 288 287 287 287 287 287 287 288 288 289 289 288 288 287 287 287 287 288 288 288 289 290 291 291 290 289 287 287 287 287 287 288 288 290 291 291 291 291
Wind_Speed
2 0 1 1 5 5 5 7 8 9 10 9 6 3 4 4 2 1 3 6 4 4 7 6 5 7 8 9 9 10 11 12 12 14 16 16 16 15 14 13 13 12 12 13 16 20 21 17 14 15 17 18 21 23 23 23 22 22 22 22 21 21 20 18 18 18 18 19 21 21 21 21 20 18 16 15 14 14 14 13 13 11 9 8 9 9 9
4 3 3 2 5 5 6 10 10 8 8 9 8 6 6 5 3 2 5 8 5 4 5 7 8 10 13 13 12 13 14 14 14 15 16 16 17 17 15 15 16 15 14 15 17 20 22 20 18 20 22 22 23 24 24 23 22 21 20 20 20 20 20 18 18 19 20 21 21 21 22 23 20 17 16 14 11 10 10 9 8 9 8 7 8 9 9
3 4 5 4 3 5 7 11 12 10 8 8 8 7 6 5 3 4 6 7 5 5 7 11 11 12 15 14 14 15 15 15 16 16 16 17 18 19 18 17 17 17 16 17 19 20 22 25 25 24 23 24 24 24 22 21 21 20 18 18 18 18 17 17 16 17 18 18 18 19 21 20 14 9 9 10 10 11 10 10 10 10 10 8 8 8 8
3 3 4 3 2 3 5 10 13 12 8 5 5 4 4 4 2 3 5 3 3 4 8 12 12 13 16 15 14 15 14 14 15 16 17 17 18 21 21 19 18 18 18 19 22 24 25 27 28 25 23 24 24 23 22 22 22 20 17 16 17 16 16 15 13 12 12 14 15 14 15 14 11 9 10 11 11 11 10 11 11 11 11 10 8 8 8
3 1 1 1 2 3 1 5 8 8 6 5 4 2 3 6 4 2 2 2 3 4 6 9 10 12 14 13 12 13 13 13 15 16 17 17 17 19 21 22 21 20 20 20 23 26 26 25 26 25 24 23 23 21 20 20 19 17 16 16 16 15 14 14 12 10 10 12 14 14 13 13 12 12 13 12 12 12 12 11 11 11 11 10 9 8 8
2 2 3 2 3 2 1 1 5 5 4 6 5 2 5 7 3 3 4 5 6 5 5 9 11 12 14 15 14 13 12 13 16 16 16 17 18 19 21 24 24 22 23 24 24 26 26 25 26 26 23 21 21 22 21 20 18 17 17 17 16 14 12 11 10 9 9 9 11 13 13 13 13 14 14 14 13 13 12 11 10 10 10 9 9 8 8
3 1 1 2 2 1 2 2 5 5 3 6 4 2 6 8 4 5 7 7 9 10 10 12 15 17 19 20 19 18 15 15 17 19 19 19 21 23 25 26 25 24 25 26 26 27 28 27 27 27 26 23 24 25 25 23 21 20 19 18 17 15 14 12 11 11 10 9 10 10 10 9 9 11 12 12 12 12 11 10 10 10 9 9 8 8 8
2 3 1 1 3 2 1 2 5 6 4 6 4 1 5 9 6 4 7 8 10 14 15 14 17 22 25 25 23 21 19 18 19 21 21 21 23 26 28 29 28 27 26 28 28 28 29 29 29 30 31 30 29 30 28 25 22 21 20 20 20 19 18 17 16 14 13 12 11 10 8 7 7 7 8 8 9 9 9 8 8 8 8 7 7 7 8
1 3 3 3 3 2 3 3 5 5 3 5 4 1 3 8 6 4 8 9 10 13 15 17 18 21 23 20 17 17 20 20 20 21 21 22 24 26 28 29 30 30 29 29 29 29 30 30 31 31 31 31 32 32 31 29 27 26 25 24 23 22 21 20 18 17 16 15 14 13 11 9 8 8 7 7 6 7 6 6 5 5 6 6 6 7 7
0 3 4 2 2 2 3 5 5 4 5 5 3 2 1 5 6 4 8 10 11 12 13 15 12 10 11 9 7 13 20 22 22 22 22 22 24 25 25 25 25 26 25 24 24 26 27 26 26 26 25 26 28 29 29 28 27 27 27 25 23 22 21 20 18 17 15 15 15 14 13 12 11 9 8 7 7 6 5 4 4 4 4 4 5 6 6
2 2 4 2 2 2 4 8 8 9 7 3 2 2 1 5 7 4 6 9 11 13 13 10 5 2 4 4 4 10 18 21 22 22 22 23 24 24 22 21 21 21 21 20 19 20 21 21 20 19 19 20 22 23 22 21 22 22 22 21 19 18 17 16 15 14 13 12 12 11 10 10 10 8 7 7 6 5 4 4 3 3 3 4 4 5 6
3 3 4 3 2 2 5 10 12 12 6 1 3 1 2 5 5 5 7 7 8 8 7 5 1 2 3 7 9 12 15 18 20 19 19 21 23 23 22 20 20 20 19 19 19 19 19 18 15 14 13 14 16 17 16 15 15 16 16 15 14 13 12 11 10 9 9 8 7 7 6 5 4 4 3 1 1 1 2 3 4 5 5 6 7 8 9
3 4 4 3 2 2 6 12 14 11 3 3 0 2 2 4 4 8 7 5 5 3 2 4 5 8 13 18 18 16 15 18 20 19 18 20 22 21 20 19 19 19 19 19 20 20 19 17 15 12 10 11 13 14 11 10 11 11 12 12 11 9 8 7 6 6 5 5 4 3 2 1 1 1 2 4 5 5 6 6 7 7 8 9 10 11 12
2 3 4 3 3 2 10 16 14 8 2 1 2 5 2 1 7 10 8 6 6 7 11 16 19 22 24 21 17 15 17 20 21 19 19 20 21 20 18 16 16 17 18 19 19 19 18 17 15 13 10 12 14 12 11 11 11 11 11 10 9 9 7 7 6 6 5 5 5 4 4 3 4 4 5 6 8 8 9 10 10 10 10 11 11 12 13
1 3 4 3 2 4 16 17 8 5 5 2 3 5 2 7 10 11 10 9 10 15 21 24 25 25 22 18 16 17 19 20 19 19 19 19 19 18 17 16 15 16 18 18 18 17 16 15 15 14 11 12 13 11 12 14 13 11 10 9 9 8 8 7 6 5 4 4 3 3 3 4 4 5 6 7 8 9 10 11 12 12 13 13 13 14 14
2 3 4 3 2 7 14 12 4 4 7 4 3 2 6 10 11 12 13 13 14 21 25 25 24 23 20 18 17 15 15 15 16 16 16 16 16 15 15 15 13 12 14 16 16 15 14 14 15 14 13 13 12 11 13 14 12 11 11 10 9 8 8 7 7 5 5 4 3 3 4 4 5 5 6 7 8 9 10 11 12 13 14 14 14 15 15
4 5 4 3 3 6 9 7 4 4 5 4 4 7 10 10 11 14 16 16 19 24 27 26 25 23 20 17 15 13 13 13 13 13 13 13 13 13 13 13 11 10 11 13 13 14 13 13 14 14 14 13 12 12 13 13 12 12 12 11 10 9 8 8 8 7 7 6 6 6 6 6 6 7 7 8 9 9 10 11 12 12 13 14 14 15 15
5 8 8 6 6 8 9 8 7 7 7 8 8 11 12 12 12 14 16 20 22 24 26 26 24 21 19 18 16 15 15 13 12 12 12 12 12 12 12 12 11 10 11 11 11 12 13 13 13 14 14 13 13 13 13 13 12 12 11 10 9 9 8 8 8 8 8 8 8 8 8 8 9 9 9 9 9 9 9 10 11 11 12 13 14 14 15
2 5 6 6 7 8 9 9 11 12 13 13 13 15 16 15 14 15 18 22 23 22 23 24 22 20 18 18 17 15 14 14 13 12 11 12 12 12 11 11 10 9 9 9 9 9 11 12 12 13 13 13 13 13 12 12 12 11 11 10 10 9 9 8 8 8 7 7 8 8 8 8 8 8 8 8 8 8 8 9 9 10 11 11 12 13 13
3 3 3 5 8 10 10 11 13 14 17 17 17 18 18 18 17 18 19 20 21 21 21 21 20 19 16 15 14 14 13 13 13 12 12 11 11 10 10 10 9 7 7 8 8 8 10 11 12 13 13 12 12 11 11 12 12 11 11 11 10 9 9 8 8 8 7 8 8 7 7 7 7 7 7 7 7 7 7 7 8 8 9 10 11 12 13
5 4 4 5 8 9 9 12 16 17 19 19 19 19 19 19 19 19 17 16 16 17 17 17 16 15 13 11 11 10 10 10 10 11 11 10 9 9 8 7 6 4 4 5 6 7 9 10 11 12 13 12 11 11 11 11 12 11 11 11 10 10 9 8 8 7 7 7 6 6 6 7 7 7 7 7 7 8 8 9 9 10 11 12 12 13 14
4 3 4 5 4 5 5 9 15 18 19 19 18 18 17 16 16 15 15 14 13 12 11 10 9 10 10 9 8 8 8 7 7 7 8 7 7 6 6 5 4 3 3 4 4 4 6 7 9 11 11 10 10 10 10 11 11 11 11 11 10 9 9 8 8 7 7 7 6 7 7 7 7 8 8 7 7 8 9 10 11 11 11 11 12 14 15
5 3 6 6 5 6 8 10 13 15 15 14 14 14 13 12 11 11 12 12 11 10 8 6 4 6 8 8 7 6 6 5 5 5 5 5 4 5 5 5 4 3 3 3 3 3 4 5 7 9 10 9 8 8 9 10 10 10 11 11 10 9 9 8 7 7 7 7 7 7 8 7 7 8 8 8 8 8 9 9 10 9 9 10 11 13 15
6 6 7 7 7 9 10 10 10 10 9 10 11 11 11 11 10 9 9 9 7 7 7 5 4 5 8 8 6 5 5 5 5 5 5 4 4 4 4 4 4 4 4 4 3 3 3 4 5 7 9 9 8 8 9 9 9 10 11 11 11 10 10 8 7 7 7 8 8 8 9 8 8 7 7 9 11 12 12 11 9 8 8 8 9 11 13
8 8 7 7 9 11 11 9 8 8 8 10 11 11 12 11 11 9 8 8 8 7 7 8 8 7 7 7 6 5 6 6 6 7 6 4 3 1 1 2 3 3 3 3 3 3 2 3 4 6 8 9 8 8 8 8 9 11 12 12 11 10 10 9 7 7 8 8 8 8 9 9 9 9 9 10 12 14 14 12 10 9 9 9 10 11 13
9 8 8 9 11 11 10 8 7 8 9 9 9 10 11 10 9 8 7 7 8 8 7 7 7 6 6 6 5 5 5 6 6 6 5 4 2 1 0 1 2 3 3 3 3 3 2 1 2 4 5 7 7 6 7 8 9 10 12 12 11 10 10 9 7 7 7 8 8 8 8 9 10 10 11 11 12 12 12 11 10 10 11 11 12 13 14
9 8 8 8 9 9 9 7 6 7 7 6 7 8 8 7 7 6 5 5 5 6 6 5 4 4 4 3 3 4 4 5 5 5 5 5 3 1 1 3 3 4 3 4 4 4 4 3 2 1 3 5 5 5 6 6 7 8 10 11 11 11 11 11 8 5 5 6 7 7 7 8 9 10 11 12 12 13 13 12 11 11 11 11 12 13 14
8 7 6 4 3 6 7 5 4 5 6 4 4 5 5 4 4 4 3 3 4 4 4 4 3 3 2 1 1 3 3 4 5 5 5 6 5 4 4 4 5 6 6 6 6 7 7 6 5 4 2 4 5 4 4 5 6 7 9 10 11 12 12 11 9 5 3 4 5 5 6 7 8 10 11 12 12 13 13 13 12 12 12 11 11 12 13
4 3 4 5 3 2 5 4 3 5 5 5 4 5 4 2 2 2 3 3 3 3 3 3 3 2 1 1 1 2 3 4 5 6 6 7 8 7 7 7 7 7 8 8 8 9 10 9 8 6 4 3 4 3 2 4 5 6 7 8 10 11 11 10 8 5 2 2 2 3 4 5 6 8 9 11 12 13 13 13 13 13 13 12 12 12 12
4 3 3 4 3 0 3 4 4 4 5 6 6 7 6 5 4 3 4 4 3 3 3 2 2 3 3 3 2 2 4 5 7 7 8 9 9 9 9 9 9 9 9 9 9 9 10 11 11 8 6 5 4 2 1 3 4 5 6 7 8 9 10 9 8 5 3 0 1 1 2 3 4 5 8 10 12 13 13 13 13 13 13 14 14 14 14
5 7 7 6 4 3 3 3 3 4 6 7 8 8 8 8 7 7 6 5 4 4 4 3 3 3 3 3 3 4 5 7 9 10 10 10 11 11 10 10 11 10 10 9 8 7 7 10 12 10 7 6 4 3 1 2 3 4 5 6 7 8 9 9 9 7 5 3 1 1 1 2 3 4 6 9 12 13 13 13 13 13 13 13 14 15 15
4 4 5 5 5 6 4 3 2 4 5 6 8 10 11 12 11 10 8 7 6 5 5 5 4 3 3 3 4 5 7 8 10 11 12 12 12 11 10 9 9 9 9 8 7 6 5 7 11 11 8 6 5 3 1 2 3 4 5 6 7 8 9 10 10 10 8 6 4 3 3 4 3 4 6 9 11 13 14 13 13 11 11 12 13 13 13
7 4 3 3 4 6 6 4 2 2 4 7 8 8 10 13 14 13 12 11 9 8 8 6 4 3 4 5 5 6 7 9 10 11 11 11 10 8 6 6 6 7 7 6 5 5 3 4 9 10 8 6 4 2 1 2 3 4 5 6 7 9 9 10 10 11 10 9 6 5 5 5 4 5 6 7 9 11 12 13 12 9 8 11 12 11 11
8 6 3 3 4 6 5 3 3 3 6 8 8 6 5 6 9 11 12 13 12 10 8 5 3 4 5 6 6 6 6 8 9 9 9 8 7 5 5 5 5 5 4 5 4 3 2 5 7 8 7 5 4 3 1 2 3 4 4 5 7 8 10 10 9 10 11 10 8 7 6 5 5 4 4 5 7 8 10 12 10 7 7 9 9 8 9
8 7 4 2 4 5 3 1 3 6 8 8 8 7 5 3 3 4 6 7 9 10 8 5 4 5 6 5 5 4 5 6 7 7 7 6 5 5 5 6 6 4 3 5 5 3 3 5 8 8 6 5 5 4 3 3 3 3 4 5 6 8 9 9 9 10 10 10 9 8 5 4 3 2 2 3 5 6 8 10 8 6 7 7 7 7 8
7 8 8 6 1 2 1 2 5 9 10 8 7 7 5 5 7 8 7 6 5 7 7 6 6 6 5 4 4 3 3 5 6 6 6 6 5 5 6 6 6 5 4 5 6 5 4 4 6 8 8 7 6 6 5 4 4 4 4 4 5 7 9 9 9 10 11 11 10 8 4 2 2 2 2 3 4 5 6 7 7 7 7 7 7 8 9
7 7 7 6 3 2 3 5 7 9 9 9 8 7 6 8 10 9 7 6 5 5 6 7 7 6 5 4 4 3 2 3 4 5 6 6 6 6 7 7 7 6 5 4 6 7 6 5 5 6 7 8 8 7 6 6 5 4 3 3 3 6 9 9 8 9 11 11 10 8 5 4 3 2 3 4 5 5 6 7 7 7 7 8 8 8 11
7 6 5 5 4 5 5 6 7 7 8 9 10 9 9 10 10 8 6 5 5 5 6 7 7 7 6 5 4 3 2 2 4 6 7 8 8 8 8 8 7 7 6 5 5 6 6 6 7 7 7 7 7 7 6 6 5 5 3 3 2 5 8 8 7 8 10 11 10 9 7 5 5 5 7 8 7 6 7 7 7 7 8 8 7 9 12
6 6 6 6 6 6 6 6 6 6 7 8 8 8 9 9 9 7 6 4 3 4 6 7 8 8 7 6 5 3 3 3 4 6 8 9 10 9 8 7 8 8 7 6 6 6 5 6 6 7 6 6 6 5 6 6 6 5 4 3 2 4 6 7 7 7 8 10 11 10 9 8 8 9 9 9 7 7 7 7 7 8 8 7 7 11 14
7 7 7 7 7 7 6 6 6 6 6 6 6 7 7 7 5 4 4 3 3 3 5 7 8 8 8 7 6 4 4 4 5 6 8 10 10 8 6 7 7 6 5 5 6 6 5 5 6 6 6 5 5 5 5 6 7 5 4 3 2 2 5 7 8 7 7 9 10 10 10 9 9 10 10 8 7 7 6 6 7 7 7 7 9 12 13
7 8 8 7 7 7 7 6 6 6 6 6 7 7 6 5 4 3 3 3 3 3 4 6 7 8 8 7 6 6 5 6 7 7 8 9 9 8 7 7 7 6 4 3 4 5 5 5 5 6 6 5 5 5 5 6 6 5 5 4 2 1 3 7 8 7 6 7 9 10 10 9 9 10 9 7 6 6 5 5 5 5 5 6 9 11 11
7 8 9 8 7 7 7 7 7 7 7 7 7 8 7 5 4 4 4 5 4 4 4 4 5 6 7 7 7 7 7 6 7 8 8 8 8 8 8 7 6 5 4 4 3 3 3 4 5 6 6 6 6 6 5 5 5 6 6 5 3 1 2 5 8 8 6 5 7 9 10 9 8 8 7 5 4 4 4 3 4 4 5 5 7 8 9
9 10 10 9 9 9 8 7 8 8 7 6 7 8 8 7 6 6 7 7 7 7 6 6 6 7 7 8 8 8 7 7 7 8 8 8 8 8 8 7 6 5 5 4 3 3 3 3 4 5 7 8 8 8 6 5 5 7 7 7 5 2 1 3 6 8 7 4 4 6 8 8 7 6 5 4 3 2 2 3 4 5 5 4 5 6 6
9 10 10 10 10 10 9 9 9 9 8 7 7 8 9 8 7 6 6 7 8 9 9 9 8 8 8 9 9 9 8 8 8 8 8 8 8 8 7 6 5 5 5 5 5 5 5 4 5 6 7 8 9 8 7 5 6 8 9 8 6 3 2 2 3 6 7 5 3 3 5 6 6 5 4 3 1 1 1 3 5 5 4 4 5 5 5
9 9 9 9 10 10 10 10 10 9 8 8 8 8 9 9 10 9 8 8 8 9 9 9 9 9 9 10 10 10 9 9 9 9 7 6 7 7 6 5 5 6 6 7 7 7 7 7 7 7 7 8 8 8 7 6 6 8 9 8 6 4 3 3 3 3 5 5 4 2 2 3 4 3 3 2 1 1 2 0 3 5 5 5 6 6 6
8 8 9 9 9 10 10 11 11 10 9 9 8 8 8 8 9 11 12 12 11 11 10 10 10 10 9 9 9 9 9 9 9 8 7 5 5 6 5 5 6 7 7 8 8 7 7 8 9 9 9 9 8 8 8 8 7 8 9 9 7 5 4 4 4 2 3 4 4 3 0 1 2 2 2 2 2 2 3 2 2 4 6 6 6 7 8
7 8 9 9 9 9 9 10 10 10 10 10 10 9 8 7 8 9 11 12 13 13 12 12 12 11 11 10 9 8 8 8 8 8 8 6 5 4 5 5 5 6 7 7 8 7 5 6 7 8 8 8 8 9 9 9 9 9 9 8 7 6 6 6 5 4 3 3 3 3 2 1 2 3 3 3 3 2 2 3 3 4 5 7 7 6 6
7 8 9 9 10 10 10 10 10 10 10 10 10 10 9 8 8 8 9 10 11 11 10 10 10 10 10 8 7 7 7 7 8 8 7 7 6 5 5 6 7 6 6 7 8 8 6 4 4 4 5 5 6 8 9 9 9 9 9 8 7 7 7 7 7 6 5 4 4 4 4 3 2 3 4 5 5 5 5 4 4 5 5 7 8 6 5
7 9 10 11 11 11 11 11 11 11 10 9 9 9 9 9 9 9 9 9 9 9 8 7 6 7 8 8 8 8 8 8 9 9 8 8 8 8 6 6 8 8 6 6 7 7 6 4 3 3 2 2 4 6 8 8 9 9 9 8 8 8 8 8 9 8 8 7 6 6 5 5 4 3 4 5 6 7 8 7 7 7 7 7 8 7 6
8 9 11 11 11 11 12 12 12 11 10 8 7 7 8 8 8 8 9 9 9 9 9 8 7 7 7 8 8 8 8 8 9 10 10 10 10 10 9 8 7 6 5 4 4 4 3 3 4 4 3 2 2 4 6 7 8 9 9 9 10 10 10 10 11 11 11 11 10 8 7 7 6 5 5 5 6 7 8 9 9 9 9 9 10 10 9
8 9 10 11 11 10 11 11 11 10 9 8 7 7 7 7 7 7 7 8 8 9 9 9 9 8 8 7 7 7 7 8 8 9 9 9 8 9 9 8 6 4 2 3 4 4 4 4 4 4 4 3 1 2 4 6 8 8 9 10 11 11 11 10 11 11 12 12 12 11 9 9 8 8 7 6 6 7 7 7 9 10 11 11 11 11 11
9 9 10 10 10 10 10 10 9 9 8 8 7 7 7 7 7 7 6 6 6 7 7 8 8 8 8 8 8 7 7 7 7 8 8 8 8 8 8 7 5 3 2 1 3 4 4 4 4 4 3 2 1 1 2 4 5 6 7 8 9 9 8 8 8 9 10 11 11 12 11 11 10 9 8 8 8 8 7 7 7 8 10 12 12 12 12
Wind_Direction
109 98 315 100 105 92 67 54 37 23 24 32 52 49 354 341 305 340 129 150 151 149 152 135 111 102 90 82 80 78 78 76 77 83 85 81 80 88 99 105 109 113 110 111 122 128 134 145 149 143 140 137 135 135 138 146 152 153 155 158 160 165 171 173 173 174 177 179 181 181 180 178 174 169 163 158 152 150 149 145 141 141 145 149 148 140 130
93 56 27 77 115 103 65 52 43 34 42 50 55 47 13 10 37 68 123 134 96 58 110 95 80 92 92 85 79 72 73 76 75 74 75 72 73 82 94 102 109 113 108 109 122 128 133 145 154 151 147 145 141 140 144 148 150 151 155 159 163 167 170 172 172 172 173 175 176 177 180 178 172 168 168 168 168 172 180 189 181 165 167 177 171 161 152
93 48 33 32 73 106 81 52 37 28 39 51 44 32 13 13 65 102 129 133 87 46 78 83 77 82 82 76 73 71 72 77 79 77 76 76 77 83 90 96 104 111 111 113 122 125 123 127 132 137 139 142 144 144 146 148 147 149 154 159 163 166 167 168 170 171 170 170 172 176 180 182 183 192 200 207 223 230 224 220 208 188 187 194 186 177 171
135 57 48 48 63 123 91 46 25 15 21 28 4 2 9 352 2 132 145 143 110 95 91 81 73 74 76 74 73 77 76 76 82 84 82 81 81 85 92 95 97 102 105 109 116 119 118 117 120 125 131 135 138 139 140 144 147 149 152 154 156 158 159 163 168 175 178 178 183 191 195 199 218 234 223 211 211 209 199 193 189 190 198 202 195 190 190
147 54 25 145 181 193 120 27 4 350 355 356 333 334 12 349 327 186 164 52 88 129 113 91 80 74 74 74 72 77 81 81 85 88 86 86 83 84 91 95 94 94 96 102 108 112 115 117 118 121 126 126 125 127 130 136 143 149 151 151 152 154 155 160 168 178 185 185 190 199 201 202 206 203 195 189 184 182 181 182 186 194 201 201 200 203 205
131 7 322 204 187 209 176 19 345 333 342 1 5 28 9 353 357 90 71 51 60 69 78 94 98 85 79 82 80 80 85 87 89 88 86 89 91 90 93 97 100 98 96 100 105 106 110 114 116 118 121 119 119 123 127 131 134 137 140 142 142 142 141 149 162 168 171 176 183 188 188 189 190 187 186 186 184 185 187 188 191 199 204 206 207 209 214
105 103 295 187 149 28 171 171 355 350 345 357 6 59 29 13 25 73 76 73 72 72 77 91 100 97 92 88 83 81 84 87 92 93 91 93 96 97 99 102 105 105 101 102 105 105 106 109 111 114 116 117 120 121 121 122 122 124 127 129 127 126 126 130 135 141 149 160 166 167 169 176 183 186 187 185 184 190 199 203 204 206 211 216 219 220 224
119 142 53 101 115 53 137 144 11 5 1 355 349 73 37 18 13 64 86 91 99 104 104 103 104 102 96 86 78 80 86 89 93 97 98 100 101 101 102 103 103 104 102 100 102 104 104 105 106 108 109 112 114 113 113 114 115 118 123 123 123 126 126 124 122 122 128 137 141 142 147 158 168 174 179 182 183 191 206 214 213 212 215 223 232 237 239
121 119 78 90 138 104 62 37 12 5 342 336 331 286 11 14 20 88 113 114 114 114 116 119 116 106 94 81 66 73 86 92 95 96 98 102 103 103 104 103 102 102 100 99 101 103 103 103 103 103 105 109 111 109 109 110 112 114 116 114 115 118 118 117 116 114 116 121 123 127 136 144 149 153 159 170 176 181 198 211 212 214 219 225 234 240 244
68 122 111 108 142 103 28 355 350 346 317 304 291 250 327 12 24 82 129 130 125 127 133 136 133 110 90 78 63 79 91 97 99 98 98 100 101 102 103 103 104 104 104 104 105 107 106 104 102 103 105 108 108 106 104 104 107 108 107 106 107 108 109 110 112 114 115 118 118 121 127 131 132 135 138 143 151 157 169 184 191 199 206 214 224 232 241
66 99 104 84 86 84 2 339 328 326 324 296 235 211 19 1 8 65 129 137 135 139 143 145 145 99 88 105 120 103 99 101 103 101 99 98 98 99 101 102 103 104 106 107 108 108 107 103 102 107 111 111 109 106 104 104 104 102 99 99 100 100 99 100 104 108 111 116 120 122 121 118 117 123 128 131 140 152 168 187 203 218 227 236 243 247 253
85 89 92 74 74 57 354 336 324 324 333 162 189 189 36 1 11 93 120 128 130 137 151 152 88 37 128 149 144 123 107 106 107 104 99 98 98 97 97 97 99 100 102 102 99 96 94 93 96 105 116 119 111 105 103 105 102 93 86 86 89 90 88 86 86 87 90 98 110 116 117 114 110 117 122 106 98 228 243 246 251 260 265 268 271 272 273
73 84 103 94 71 36 343 331 324 321 302 176 170 359 346 350 55 101 104 102 114 128 160 129 84 91 126 134 128 119 112 108 105 100 95 93 91 90 92 95 97 98 97 93 88 85 85 86 89 93 104 109 101 96 100 102 94 79 69 67 70 71 73 70 62 55 53 52 53 58 64 54 23 344 304 308 311 309 306 300 293 289 286 284 283 283 283
41 75 103 97 103 42 346 333 326 332 335 175 21 0 316 100 96 94 81 77 96 96 97 102 103 110 120 122 114 110 112 108 103 100 99 94 91 94 101 105 102 99 97 92 87 83 80 78 77 77 84 90 88 88 92 88 79 68 59 55 52 49 49 48 43 36 29 23 15 6 354 342 329 316 304 301 303 304 305 305 303 301 298 295 293 291 290
34 71 68 68 103 0 347 341 336 6 14 339 333 351 55 115 106 94 82 81 98 104 102 104 109 114 117 114 108 110 112 110 107 107 106 103 103 105 108 107 104 101 99 96 90 85 79 73 69 63 64 73 77 79 81 77 73 69 64 59 55 51 51 53 53 49 41 32 20 1 348 335 323 316 311 305 302 301 300 300 301 301 300 299 297 296 295
23 63 55 51 31 338 347 356 8 354 346 328 314 30 99 110 108 102 95 91 102 110 110 110 110 111 111 111 113 115 115 114 113 112 110 110 113 115 113 110 107 102 99 98 94 88 79 71 65 57 50 53 58 63 67 66 65 65 63 59 57 54 54 55 54 51 47 37 21 5 352 341 331 323 317 310 306 304 302 301 301 300 300 299 297 296 296
60 71 69 63 36 2 2 20 29 0 5 35 96 115 112 109 113 113 107 104 110 113 113 111 110 109 109 110 113 117 118 116 114 114 115 118 122 124 122 120 116 106 101 100 97 90 79 67 60 54 46 43 48 57 63 65 66 66 63 59 54 48 44 42 36 31 26 17 8 1 353 346 341 332 325 320 316 311 309 308 306 305 305 304 303 302 301
84 74 62 57 47 31 30 45 55 64 77 86 100 109 107 108 117 120 116 115 116 116 115 113 112 112 114 115 114 114 115 113 113 116 118 121 124 127 125 123 120 112 107 103 96 89 80 67 57 50 45 43 49 58 64 65 66 65 62 58 53 47 42 36 30 25 19 9 4 359 352 346 342 338 334 331 327 325 323 319 316 314 312 311 310 309 309
108 76 47 35 46 46 47 61 70 76 85 90 93 100 105 110 115 118 119 120 118 116 115 115 115 117 119 118 115 113 109 106 105 109 114 119 123 125 125 124 122 116 109 103 96 89 80 69 57 50 47 49 56 62 65 63 60 57 53 49 44 40 38 33 28 25 18 11 6 0 352 346 342 341 340 336 332 330 325 318 314 311 309 308 310 312 314
76 81 50 51 70 70 68 78 83 85 89 91 92 95 99 103 105 110 116 117 116 117 118 118 119 121 119 116 116 113 106 98 94 95 103 113 120 123 125 126 123 117 109 103 98 91 83 75 63 53 52 56 62 66 65 61 55 50 47 45 40 36 34 30 25 20 14 10 9 5 359 355 356 0 359 350 342 335 326 321 319 317 321 325 328 331 333
87 89 102 104 91 78 74 89 99 102 101 100 100 99 98 99 102 107 111 112 112 115 118 120 122 123 122 120 120 118 111 100 91 87 92 102 114 122 127 129 125 115 101 96 91 82 77 72 62 54 53 55 58 59 57 53 48 44 43 42 38 35 32 27 22 19 16 17 23 28 26 21 21 26 26 18 9 358 347 342 341 341 346 348 347 349 352
93 108 151 153 114 87 98 113 114 114 112 109 108 107 104 103 103 104 109 114 116 115 115 117 119 119 120 119 117 117 115 100 85 82 84 90 103 116 127 136 140 138 124 111 99 85 79 73 61 52 49 48 50 50 49 46 41 38 39 39 38 35 32 28 25 26 30 37 48 59 64 61 55 51 46 36 22 8 356 350 347 349 354 357 356 357 359
85 123 153 151 119 114 134 138 129 124 122 118 114 111 110 108 103 97 102 114 128 137 137 134 125 112 111 110 104 103 98 78 64 68 72 77 99 123 136 148 160 166 156 143 128 110 95 80 65 54 45 43 44 42 41 41 38 36 39 41 41 41 41 39 40 47 58 69 73 74 80 87 86 74 61 44 28 14 4 356 354 358 5 8 6 2 2
92 110 126 125 116 126 142 145 137 130 125 120 114 110 107 105 101 98 95 96 112 134 140 141 141 120 107 104 100 92 84 73 64 61 62 71 98 123 144 168 182 180 170 161 151 133 109 80 63 49 38 35 35 34 36 37 35 36 41 44 45 47 48 50 57 72 84 91 89 81 78 81 82 74 58 44 36 30 23 15 14 24 30 25 21 17 14
100 105 110 115 122 131 137 138 132 124 120 117 113 108 106 103 99 96 89 79 79 93 110 120 127 123 108 101 96 85 79 74 66 60 60 66 81 98 145 192 196 196 190 178 171 161 128 83 62 44 31 26 23 26 31 32 33 38 42 44 45 47 48 51 65 86 92 89 84 78 72 66 62 56 47 40 39 41 43 41 40 45 45 36 30 26 20
96 100 105 113 123 133 137 136 135 129 124 120 116 111 107 104 100 95 89 80 78 83 95 105 112 112 105 95 84 74 68 58 50 47 45 42 51 81 269 249 228 224 212 197 198 203 192 143 69 40 25 15 10 15 23 29 34 37 39 41 42 41 41 45 58 81 88 79 73 69 63 56 51 45 41 37 34 36 43 49 50 49 44 33 24 17 12
97 98 103 116 136 150 148 143 145 146 138 127 124 120 110 105 109 110 105 102 100 100 103 103 99 104 110 97 66 52 48 39 31 25 15 9 13 6 286 267 254 250 240 222 217 218 214 212 219 333 359 354 351 359 14 26 34 36 36 37 37 35 35 37 44 63 81 78 73 68 58 51 45 38 34 33 30 27 27 29 31 34 33 25 16 8 3
115 100 79 77 142 173 168 153 149 161 162 152 148 143 125 112 127 137 133 133 136 132 132 131 120 112 126 133 50 28 24 18 13 9 357 344 339 332 314 287 270 263 256 245 237 232 225 221 223 230 276 322 325 333 3 22 31 33 32 31 33 33 31 31 35 47 73 84 79 71 59 49 41 33 28 25 23 21 19 17 15 14 14 13 9 2 355
143 108 37 19 21 172 184 183 174 179 191 198 193 186 175 160 176 201 201 188 177 171 168 166 167 184 229 233 263 352 351 344 343 344 339 328 320 314 307 298 286 275 266 261 258 249 237 227 222 222 236 278 290 293 353 21 24 28 28 27 31 32 27 24 27 32 51 100 102 81 62 51 38 28 23 18 15 12 11 12 11 7 3 2 1 357 353
249 264 309 330 341 171 193 204 206 210 217 221 220 217 217 224 240 244 237 234 226 213 206 204 215 243 270 278 286 310 318 318 319 319 319 319 315 307 299 293 288 281 275 270 271 268 250 231 219 217 230 250 253 247 318 7 14 19 21 22 27 28 25 21 18 17 16 24 175 128 52 37 27 19 13 10 7 4 3 5 6 4 2 1 360 358 357
270 270 279 280 267 235 203 201 215 227 232 233 235 234 230 233 246 254 251 252 257 250 242 245 254 268 283 288 287 292 299 305 310 312 313 313 309 301 293 287 282 278 273 268 277 288 267 231 214 212 226 238 229 218 280 345 356 3 8 14 18 20 20 16 12 9 5 349 304 266 304 329 344 355 358 359 359 356 354 357 0 1 2 4 3 2 3
353 301 286 276 252 228 208 190 213 240 254 259 259 255 249 246 252 261 263 265 273 271 263 266 280 290 290 283 281 285 294 302 309 312 311 309 304 299 296 291 284 277 268 261 270 293 282 226 206 205 214 219 210 209 266 327 338 346 356 6 9 9 10 9 6 4 0 347 323 293 290 302 314 326 338 351 354 349 348 356 2 1 0 5 7 8 9
25 359 321 302 259 222 207 200 216 257 306 309 297 283 267 257 258 266 271 273 274 270 266 269 283 288 281 276 275 281 292 302 310 313 311 306 304 309 315 310 299 286 268 255 259 282 277 206 191 196 204 207 201 205 262 328 334 337 344 353 359 1 3 2 1 1 360 352 333 301 284 284 293 307 326 348 352 346 348 1 8 5 1 6 12 17 17
20 6 339 305 264 232 222 232 257 304 328 318 304 304 303 276 265 268 271 269 265 263 263 265 261 258 265 269 269 278 296 308 316 322 319 310 309 320 330 329 324 305 263 238 242 264 238 196 188 192 199 205 209 216 258 327 334 331 331 338 350 356 356 356 359 1 0 356 343 318 288 271 278 295 322 350 353 351 357 4 9 10 8 12 22 31 27
25 22 19 337 246 232 228 254 309 335 341 323 295 293 311 333 334 317 299 278 261 252 249 242 235 242 251 256 258 277 305 319 328 337 340 333 326 324 323 326 333 327 265 226 226 236 217 203 204 207 209 215 224 231 255 304 320 319 317 324 340 350 352 355 0 3 1 359 351 334 302 266 267 295 341 2 4 6 6 5 8 16 16 20 35 44 33
31 34 38 42 64 217 243 329 334 339 341 332 310 297 298 313 319 316 314 309 281 248 230 224 231 242 246 241 245 275 314 331 340 349 351 350 347 341 333 328 328 324 294 244 235 236 226 213 217 221 224 229 234 237 254 283 295 295 299 309 329 346 352 357 3 5 4 2 357 352 355 44 53 29 23 27 30 29 20 16 22 29 27 31 44 47 38
27 29 34 37 34 348 328 331 333 335 331 322 315 309 307 317 318 307 294 295 287 248 219 217 229 238 235 231 238 266 313 341 356 356 348 343 342 341 340 336 327 318 306 274 248 242 237 232 232 230 230 232 234 238 253 270 271 267 278 293 320 344 352 357 5 10 8 5 4 11 34 55 41 21 54 76 77 65 50 41 38 40 43 44 45 46 49
16 10 6 357 340 329 327 326 326 326 318 310 307 304 304 314 319 311 294 290 275 236 215 217 225 229 231 237 248 267 300 335 351 350 341 334 329 326 328 330 323 309 295 276 258 247 239 238 237 231 225 225 228 237 249 255 248 246 257 270 305 344 353 357 6 12 13 13 15 19 23 30 41 64 87 100 100 85 67 55 47 49 56 52 43 48 57
5 356 348 339 328 322 319 313 306 304 306 306 306 304 305 310 310 302 295 295 275 234 223 222 224 228 237 247 256 264 277 303 326 337 338 334 326 322 325 325 314 301 288 270 258 252 241 232 226 220 215 216 224 237 246 239 230 232 242 244 277 348 357 2 10 15 16 20 25 26 24 34 66 93 104 106 102 88 75 65 59 63 66 59 50 54 59
350 344 339 334 327 319 311 303 296 295 299 302 301 303 307 309 304 291 286 291 285 258 242 236 233 236 245 252 254 255 261 280 300 319 334 336 329 326 335 340 329 318 304 273 257 254 247 231 218 213 214 222 235 245 238 225 222 227 231 224 235 353 4 8 14 19 23 27 34 37 34 42 72 104 115 109 99 92 81 70 69 73 72 64 58 57 56
328 328 326 326 324 320 312 303 297 295 292 285 285 294 306 308 290 264 257 269 272 266 259 257 253 250 249 250 248 247 255 270 284 298 319 333 331 326 332 343 346 347 345 316 277 264 255 240 224 217 222 236 250 251 233 222 223 225 216 205 206 343 9 10 12 18 28 36 41 45 45 49 70 97 108 104 99 96 88 81 84 89 86 77 69 61 54
309 314 316 315 313 311 309 304 297 294 292 285 278 279 288 291 269 237 235 249 257 256 254 257 255 249 245 246 249 254 262 271 281 290 304 317 321 321 323 329 335 339 340 333 320 296 267 241 225 222 230 247 260 261 248 232 223 215 203 195 196 221 358 5 9 13 24 40 48 50 51 55 71 94 106 111 113 109 101 103 109 107 100 91 80 67 57
305 309 312 311 306 302 302 302 297 290 288 284 275 269 269 269 263 250 246 250 256 259 260 257 253 248 246 246 251 259 266 273 280 289 299 307 312 317 319 317 311 311 315 316 311 303 287 258 238 236 246 257 262 263 259 242 213 199 194 193 194 211 315 350 4 9 14 29 56 60 56 58 71 91 107 116 120 116 126 149 144 129 118 111 97 79 61
311 311 311 309 304 299 299 302 301 293 283 275 271 268 262 256 253 255 254 253 256 260 261 261 260 257 254 254 258 263 268 275 280 285 295 307 314 315 314 311 307 309 316 314 302 288 279 275 270 267 268 268 261 253 247 232 204 193 193 195 198 211 260 304 344 4 9 14 40 68 67 66 73 89 110 122 104 56 83 161 168 160 142 117 100 87 71
318 320 318 312 305 300 299 301 301 299 289 277 274 279 276 265 257 254 253 252 254 256 256 259 264 264 262 265 269 271 272 273 273 272 280 302 317 315 309 304 305 312 319 318 307 288 270 263 266 272 277 275 262 243 230 223 210 199 195 198 203 215 244 265 290 344 4 9 17 45 87 95 94 101 119 143 176 326 347 280 183 173 149 117 100 92 84
327 333 332 325 314 306 304 303 301 299 292 281 276 282 285 276 265 259 255 253 254 256 258 260 262 263 265 269 273 274 275 274 268 262 264 283 310 319 312 300 293 296 306 316 316 298 268 255 258 266 272 272 258 236 224 223 217 205 200 202 209 222 239 249 255 283 338 358 4 6 9 165 158 149 145 157 199 272 316 318 232 191 169 145 123 108 98
328 335 336 332 323 315 310 308 305 302 296 287 281 281 279 271 265 265 264 262 261 261 261 259 256 257 264 271 272 274 278 277 270 262 260 265 283 311 328 326 309 295 294 305 318 318 294 264 260 266 270 266 250 233 226 224 219 209 204 207 215 225 235 239 241 249 280 320 340 342 333 288 217 208 203 201 216 247 277 291 271 231 194 172 155 135 120
322 326 329 328 323 317 313 308 306 305 302 294 285 278 272 267 266 270 274 274 269 263 262 262 257 254 257 263 266 270 277 277 272 269 268 263 262 277 309 332 334 321 299 294 305 314 312 293 277 275 271 258 242 233 230 227 218 209 206 212 221 230 234 234 234 238 252 273 294 307 313 310 281 244 230 225 231 240 248 259 268 256 218 192 181 173 165
318 320 322 321 318 315 310 306 303 303 304 301 291 278 270 268 270 273 276 277 272 262 259 262 260 254 254 258 261 265 271 273 272 274 273 265 257 258 274 304 325 328 319 305 304 308 314 324 338 333 309 265 235 227 225 221 212 206 207 216 227 233 234 233 233 235 241 250 261 275 286 291 287 270 250 240 240 244 247 250 254 252 235 215 202 199 203
324 324 324 322 319 316 313 308 302 298 296 296 294 286 277 273 274 276 276 274 268 261 258 260 263 264 264 263 262 263 266 269 270 273 275 271 262 255 257 274 302 321 333 337 334 331 338 0 10 5 354 329 251 221 212 205 202 205 214 225 234 238 240 240 239 237 237 240 244 251 263 274 278 274 265 256 250 248 249 249 248 247 243 233 221 217 222
334 334 332 332 331 330 327 320 312 300 290 283 282 284 283 279 277 277 276 273 269 262 259 260 263 265 265 264 263 264 267 269 271 274 277 274 262 249 247 257 275 299 335 9 12 10 11 14 15 12 8 1 321 225 205 200 202 212 225 236 243 247 248 247 243 239 236 235 235 235 242 255 267 270 267 262 257 254 251 249 247 245 244 241 237 232 231
345 345 345 345 347 347 341 332 321 308 294 284 279 279 279 278 276 272 269 269 269 267 264 264 266 265 263 262 262 264 269 276 280 280 275 267 254 245 242 243 244 246 261 354 24 26 25 22 19 13 10 9 3 228 209 211 219 229 240 250 257 260 258 253 247 240 235 232 231 231 233 240 251 259 261 260 260 260 260 260 256 248 244 244 246 244 240